[keps] orb08311.2l.amsat

Ray Hoad r.hoad at att.net
Thu Nov 6 18:11:15 PST 2008


SB KEPS @ AMSAT  $ORB08311.N
2Line Orbital Elements 08311.AMSAT

HR AMSAT ORBITAL ELEMENTS FOR AMATEUR SATELLITES IN NASA FORMAT
FROM WA5QGD FORT WORTH,TX November 6, 2008
Send Subscribe/unsubscribe to KEPS at 
http://www.amsat.org/mailman/listinfo/keps
BID: ORB08311.N

DECODE 2-LINE ELSETS WITH THE FOLLOWING KEY:
1 AAAAAU 00  0  0 BBBBB.BBBBBBBB  .CCCCCCCC  00000-0  00000-0 0  DDDZ
2 AAAAA EEE.EEEE FFF.FFFF GGGGGGG HHH.HHHH III.IIII JJ.JJJJJJJJKKKKKZ
KEY: A-CATALOGNUM B-EPOCHTIME C-DECAY D-ELSETNUM E-INCLINATION F-RAAN
G-ECCENTRICITY H-ARGPERIGEE I-MNANOM J-MNMOTION K-ORBITNUM Z-CHECKSUM

TO ALL RADIO AMATEURS BT

AO-07
1 07530U 74089B   08311.66830552 -.00000027  00000-0  10000-3 0  3203
2 07530 101.4516 338.3267 0012092 344.4776 015.5919 12.53574597554839
AO-10
1 14129U 83058B   08310.95014570 -.00000013  00000-0  10000-3 0  5854
2 14129 026.0336 187.3013 5959059 171.0813 207.7259 02.05868585191027
UO-11
1 14781U 84021B   08311.66931379  .00000092  00000-0  19542-4 0  8066
2 14781 098.1386 347.7183 0008916 341.5270 018.5655 14.79674301324929
RS-15
1 23439U 94085A   08310.92047432 -.00000039  00000-0  10000-3 0 02080
2 23439 064.8155 265.8549 0145678 095.3237 266.4326 11.27552554570942
FO-29
1 24278U 96046B   08310.74043917  .00000020  00000-0  57393-4 0 09101
2 24278 098.5773 208.4374 0350327 208.9759 149.1522 13.52940148603530
SO-33
1 25509U 98061B   08310.94366043  .00000276  00000-0  41231-4 0 03198
2 25509 031.4325 234.8252 0354826 186.6973 172.8834 14.28233207523897
AO-40
1 26609U 00072B   08310.48045755 -.00000272  00000-0  10000-3 0 01495
2 26609 008.0401 050.8635 7937936 141.4229 317.4964 01.25587597036813
VO-52
1 28650U 05017B   08311.71464575 -.00000062  00000-0 -12659-5 0   759
2 28650 097.7724 014.2874 0027862 037.8722 322.4419 14.81516964189704
PO-63
1 29712U 07001D   08311.71928964  .00000544  00000-0  78029-4 0  9463
2 29712 097.8585 007.1153 0013224 280.5083 079.4637 14.80325379 98555
AO-16
1 20439U 90005D   08311.49125800 -.00000007  00000-0  12621-4 0  4577
2 20439 098.2497 284.4124 0011742 110.8067 249.4366 14.31807069981283
LO-19
1 20442U 90005G   08311.51500821 -.00000058  00000-0 -64646-5 0  3812
2 20442 098.2165 292.5188 0012751 108.5688 251.6871 14.32044532981446
AO-27
1 22825U 93061C   08310.89514429  .00000059  00000-0  39722-4 0 01029
2 22825 098.4061 265.7377 0007823 198.0449 162.0458 14.29250935788011
IO-26
1 22826U 93061D   08311.83442930 -.00000001  00000-0  16163-4 0  8144
2 22826 098.3995 267.4908 0008524 191.4855 168.6148 14.29500697788249
GO-32
1 25397U 98043D   08311.62267914  .00000015  00000-0  24619-4 0  7406
2 25397 098.3498 339.6503 0001479 145.9813 214.1456 14.23150502536471
NO-44
1 26931U 01043C   08310.40277788 -.00000181  00000-0 -38315-4 0 00193
2 26931 067.0523 280.8622 0006978 256.0393 103.9929 14.29537083370591
SO-50
1 27607U 02058C   08310.58206901  .00000054  00000-0  30353-4 0  7399
2 27607 064.5598 344.2132 0084952 252.0040 107.1796 14.71392853315778
CO-55
1 27844U 03031E   08311.71100859  .00000035  00000-0  36764-4 0  4348
2 27844 098.7160 318.0105 0010806 066.8290 293.4019 14.20604772277672
CO-57
1 27848U 03031J   08310.53082040  .00000036  00000-0  36996-4 0 03866
2 27848 098.7174 315.9210 0010600 072.6615 287.5717 14.20411820277479
AO-51
1 28375U 04025K   08311.64072703  .00000014  00000-0  16651-4 0  2382
2 28375 098.0621 328.1455 0085038 080.2834 280.7950 14.40623296228910
CO-56
1 28941U 06005C   08311.83246440  .00031253  28730-5  19789-3 0  5272
2 28941 098.1218 082.9341 0142544 239.9543 118.7505 15.64056985152281
CP3
1 31128U 07012M   08310.81269025 -.00000048  00000-0  00000 0 0  4740
2 31128 098.0214 008.1379 0101839 256.7678 102.2141 14.51987605 82481
CP4
1 31132U 07012Q   08310.67414893  .00000156  00000-0  45105-4 0 04574
2 31132 098.0231 010.8665 0084710 248.7465 110.4670 14.55155226082529
CO-65
1 32785U 08021C   08310.42439751  .00000304  00000-0  45655-4 0 02037
2 32785 097.9778 009.8724 0015977 041.0458 319.1962 14.81411333028319
NOAA-10
1 16969U 86073A   08310.68419930 -.00000056  00000-0 -49274-5 0 03579
2 16969 098.7133 332.3142 0012908 126.6610 233.5755 14.27371734151628
NOAA-11
1 19531U 88089A   08310.81405189 -.00000033  00000-0  54158-5 0 03854
2 19531 098.7945 038.1383 0012009 028.3124 331.8722 14.14880473037939
NOAA-12
1 21263U 91032A   08310.98240114  .00000048  00000-0  38995-4 0 09147
2 21263 098.7724 312.9617 0013381 073.9598 286.3055 14.25552965908593
MET-3/5
1 21655U 91056A   08310.95185607  .00000051  00000-0  10000-3 0 05944
2 21655 082.5596 004.2250 0014166 024.3742 335.8048 13.17017127828244
MET-2/21
1 22782U 93055A   08310.65610044 -.00000026  00000-0 -37111-4 0 02957
2 22782 082.5498 359.3453 0020941 252.6785 107.2083 13.83631811766692
OKEAN-4
1 23317U 94066A   08310.78440425  .00000163  00000-0  17179-4 0 07411
2 23317 082.5396 182.9510 0023128 024.4212 335.8062 14.82648310759261
NOAA-14
1 23455U 94089A   08310.81158261  .00000014  00000-0  30956-4 0 03753
2 23455 098.9334 023.0384 0010360 104.2470 255.9830 14.13751819714368
NOAA-15
1 25338U 98030A   08310.79886284  .00000068  00000-0  47705-4 0 06870
2 25338 098.5670 299.1471 0010497 354.6905 005.4152 14.24731019544961
RESURS
1 25394U 98043A   08310.95686651 -.00000008  00000-0  14600-4 0 00888
2 25394 098.3698 348.3365 0001891 113.9038 246.2340 14.24174508536623
FENGYUN1
1 25730U 99025A   08310.92174424  .00000602  00000-0  37952-3 0 06407
2 25730 098.7372 282.0008 0021092 122.1458 238.1762 14.07837896488903
OKEAN-0
1 25860U 99039A   08311.85353301  .00000034  00000-0  12440-4 0  5170
2 25860 097.7645 296.1964 0001168 101.8210 258.3127 14.73543009500400
NOAA-16
1 26536U 00055A   08310.80803415  .00000097  00000-0  77683-4 0 01615
2 26536 099.1694 303.1769 0010472 184.1789 175.9254 14.12502092418768
NOAA-17
1 27453U 02032A   08310.84669148  .00000165  00000-0  90103-4 0 01616
2 27453 098.5174 011.2507 0012483 058.9892 301.2490 14.24015656330966
NOAA-18
1 28654U 05018A   08310.85621303 -.00000140  00000-0 -52934-4 0 06484
2 28654 098.8825 250.1220 0013488 274.8677 085.0957 14.11205238178450
HUBBLE
1 20580U 90037B   08310.89394325  .00000352  00000-0  14378-4 0 02573
2 20580 028.4677 118.9489 0003708 091.0297 269.0718 15.00424891816289
PO-34
1 25520U 98064B   08310.35738533  .00000435  00000-0  11635-4 0 01185
2 25520 028.4609 313.6189 0004968 023.1624 336.9191 15.17252854554625
ISS
1 25544U 98067A   08311.91500000  .00009158  00000-0  71815-4 0  5993
2 25544 051.6444 004.7127 0003473 315.1862 038.7382 15.72414245570985
CO-58
1 28895U 05043F   08310.74130004  .00000157  00000-0  42410-4 0  1625
2 28895 098.0810 201.2721 0017492 330.6293 029.3957 14.59711673161135
FALCON
1 30776U 07006E   08310.52981829  .00000415  00000-0  33191-4 0 04448
2 30776 035.4337 016.2206 0000205 173.2578 186.8141 15.03093783091421
MAST
1 31126U 07012K   08311.67723188  .00000070  00000-0  26643-4 0  4557
2 31126 098.0222 010.2887 0093755 250.0276 109.0820 14.53455554 82714
CAPE1
1 31130U 07012P   08310.94372507 -.00000002  00000-0  10725-4 0 04578
2 31130 098.0231 008.2724 0101954 256.3381 102.6401 14.52004257082299
COMPASS
1 32787U 08021E   08310.14635127  .00000480  00000-0  67926-4 0 02000
2 32787 097.9737 009.5125 0016770 043.0635 317.1887 14.81490505028276
AAUSAT2
1 32788U 08021F   08310.87509300  .00000234  00000-0  36555-4 0  1925
2 32788 097.9740 010.2627 0016395 042.8436 317.4033 14.81602910 28389
DO-64
1 32789U 08021G   08311.83495387  .00000417  00000-0  59977-4 0  2042
2 32789 097.9747 011.2674 0016485 037.4608 322.7737 14.81521521 28525
CO-66
1 32791U 08021J   08311.71842777 -.00000037  00000-0  21618-5 0  1872
2 32791 097.9756 011.0985 0016887 036.2061 324.0284 14.81338399 28472
RS-30
1 32953U 08025A   08310.75016744  .00000010  00000-0  00000-0 0 01514
2 32953 082.5048 035.5512 0017918 307.7379 052.2078 12.42997893020633
/EX






More information about the Keps mailing list